QPF
0.00 0.00 0.01 0.01 0.00 0.00 0.00 0.01 0.01 0.01 0.01 0.01 0.00 0.00 0.00 0.00 0.00 0.00 0.00 0.00 0.00 0.00 0.00 0.04 0.03 0.00 0.00 0.00 0.00 0.00 0.00 0.00 0.00 0.00 0.00 0.00 0.00 0.00 0.00 0.00 0.00 0.00 0.00
0.00 0.00 0.01 0.01 0.00 0.01 0.01 0.02 0.01 0.00 0.00 0.00 0.00 0.00 0.00 0.00 0.00 0.00 0.00 0.00 0.00 0.00 0.01 0.09 0.05 0.02 0.00 0.00 0.00 0.00 0.00 0.00 0.00 0.00 0.00 0.00 0.00 0.00 0.00 0.00 0.00 0.00 0.00
0.00 0.00 0.00 0.00 0.00 0.00 0.01 0.01 0.00 0.00 0.00 0.00 0.00 0.00 0.00 0.00 0.00 0.00 0.00 0.01 0.01 0.02 0.07 0.10 0.02 0.00 0.00 0.00 0.00 0.00 0.00 0.00 0.00 0.00 0.00 0.00 0.00 0.00 0.00 0.00 0.00 0.00 0.00
0.00 0.00 0.00 0.00 0.00 0.00 0.01 0.01 0.00 0.00 0.00 0.00 0.00 0.00 0.00 0.00 0.00 0.00 0.00 0.01 0.02 0.04 0.03 0.01 0.00 0.00 0.00 0.00 0.00 0.00 0.00 0.00 0.00 0.00 0.00 0.00 0.00 0.00 0.00 0.00 0.00 0.00 0.00
0.00 0.00 0.00 0.00 0.00 0.00 0.01 0.01 0.00 0.00 0.00 0.00 0.00 0.00 0.00 0.00 0.00 0.00 0.00 0.00 0.00 0.00 0.00 0.00 0.00 0.00 0.00 0.00 0.00 0.00 0.00 0.00 0.00 0.00 0.00 0.00 0.00 0.01 0.02 0.01 0.01 0.00 0.00
0.00 0.00 0.00 0.00 0.00 0.01 0.01 0.01 0.00 0.01 0.00 0.00 0.00 0.00 0.00 0.00 0.00 0.00 0.00 0.00 0.00 0.00 0.00 0.00 0.00 0.00 0.00 0.00 0.00 0.00 0.00 0.00 0.00 0.00 0.00 0.00 0.00 0.03 0.02 0.01 0.02 0.04 0.04
0.00 0.00 0.00 0.00 0.00 0.00 0.00 0.00 0.00 0.00 0.00 0.00 0.00 0.00 0.00 0.00 0.00 0.00 0.00 0.00 0.00 0.00 0.00 0.00 0.00 0.00 0.00 0.00 0.00 0.00 0.00 0.00 0.00 0.00 0.00 0.00 0.00 0.01 0.01 0.01 0.01 0.01 0.01
0.00 0.00 0.00 0.00 0.00 0.00 0.00 0.00 0.00 0.00 0.00 0.00 0.00 0.00 0.00 0.00 0.00 0.00 0.00 0.00 0.00 0.00 0.00 0.00 0.00 0.00 0.00 0.00 0.00 0.00 0.00 0.00 0.00 0.00 0.00 0.00 0.01 0.00 0.01 0.00 0.00 0.00 0.00
0.00 0.00 0.00 0.00 0.00 0.00 0.00 0.00 0.00 0.00 0.01 0.00 0.00 0.00 0.00 0.00 0.00 0.00 0.00 0.00 0.00 0.00 0.00 0.00 0.00 0.00 0.00 0.00 0.00 0.00 0.00 0.00 0.00 0.00 0.00 0.00 0.01 0.00 0.00 0.00 0.00 0.00 0.00
0.00 0.00 0.00 0.00 0.00 0.00 0.00 0.00 0.00 0.01 0.00 0.00 0.00 0.00 0.00 0.00 0.00 0.00 0.00 0.00 0.00 0.00 0.00 0.00 0.00 0.00 0.00 0.00 0.00 0.00 0.00 0.00 0.00 0.00 0.00 0.00 0.00 0.00 0.00 0.00 0.00 0.00 0.00
0.00 0.00 0.00 0.00 0.00 0.00 0.00 0.00 0.00 0.00 0.00 0.00 0.00 0.00 0.00 0.00 0.00 0.00 0.00 0.00 0.00 0.00 0.00 0.00 0.00 0.00 0.00 0.00 0.00 0.00 0.00 0.00 0.00 0.00 0.00 0.00 0.00 0.00 0.00 0.00 0.00 0.00 0.00
0.00 0.00 0.00 0.00 0.00 0.00 0.00 0.00 0.00 0.00 0.00 0.00 0.00 0.00 0.00 0.00 0.00 0.00 0.00 0.00 0.00 0.01 0.00 0.01 0.00 0.00 0.00 0.00 0.00 0.00 0.00 0.00 0.00 0.00 0.00 0.00 0.00 0.00 0.00 0.00 0.00 0.00 0.00
0.00 0.00 0.00 0.00 0.00 0.00 0.00 0.00 0.00 0.00 0.00 0.00 0.00 0.00 0.00 0.00 0.00 0.00 0.00 0.00 0.00 0.00 0.00 0.00 0.00 0.00 0.00 0.00 0.00 0.00 0.00 0.00 0.00 0.00 0.00 0.00 0.00 0.00 0.00 0.00 0.00 0.00 0.00
0.01 0.00 0.00 0.00 0.00 0.00 0.00 0.00 0.00 0.00 0.00 0.00 0.00 0.00 0.00 0.00 0.00 0.00 0.00 0.00 0.00 0.00 0.00 0.00 0.00 0.00 0.00 0.00 0.00 0.00 0.00 0.00 0.00 0.00 0.00 0.00 0.00 0.00 0.00 0.00 0.00 0.00 0.00
0.00 0.00 0.00 0.01 0.01 0.02 0.02 0.01 0.00 0.00 0.00 0.00 0.00 0.00 0.00 0.00 0.00 0.00 0.00 0.00 0.00 0.00 0.00 0.00 0.00 0.00 0.00 0.00 0.00 0.00 0.00 0.00 0.00 0.00 0.00 0.00 0.00 0.00 0.00 0.00 0.00 0.00 0.00
0.00 0.00 0.00 0.00 0.00 0.00 0.02 0.02 0.00 0.00 0.00 0.00 0.00 0.00 0.00 0.00 0.00 0.00 0.00 0.00 0.00 0.00 0.00 0.00 0.00 0.00 0.00 0.00 0.00 0.00 0.00 0.00 0.00 0.00 0.00 0.00 0.00 0.00 0.00 0.00 0.00 0.00 0.00
0.00 0.00 0.00 0.00 0.00 0.00 0.00 0.02 0.01 0.01 0.00 0.00 0.00 0.00 0.00 0.00 0.00 0.00 0.00 0.00 0.00 0.00 0.00 0.00 0.00 0.00 0.00 0.00 0.00 0.00 0.00 0.00 0.00 0.00 0.00 0.00 0.00 0.00 0.00 0.00 0.00 0.00 0.00
0.00 0.00 0.00 0.00 0.00 0.00 0.01 0.03 0.02 0.04 0.02 0.01 0.00 0.00 0.00 0.00 0.00 0.00 0.00 0.00 0.00 0.00 0.00 0.00 0.00 0.00 0.00 0.00 0.00 0.00 0.00 0.00 0.00 0.00 0.00 0.00 0.00 0.00 0.00 0.00 0.00 0.00 0.00
0.00 0.00 0.00 0.00 0.00 0.01 0.02 0.02 0.05 0.05 0.05 0.01 0.00 0.00 0.00 0.00 0.00 0.00 0.00 0.00 0.00 0.00 0.00 0.00 0.00 0.00 0.00 0.00 0.00 0.00 0.00 0.00 0.00 0.00 0.00 0.00 0.00 0.00 0.00 0.00 0.00 0.00 0.00
0.00 0.00 0.00 0.00 0.00 0.00 0.00 0.02 0.02 0.01 0.00 0.00 0.00 0.01 0.03 0.02 0.01 0.00 0.00 0.00 0.00 0.00 0.00 0.00 0.00 0.00 0.00 0.00 0.00 0.00 0.00 0.00 0.00 0.00 0.00 0.00 0.00 0.00 0.00 0.00 0.00 0.00 0.00
0.00 0.00 0.00 0.00 0.00 0.00 0.00 0.00 0.01 0.00 0.02 0.01 0.00 0.06 0.01 0.03 0.03 0.01 0.00 0.00 0.00 0.00 0.00 0.00 0.00 0.00 0.00 0.00 0.00 0.00 0.00 0.00 0.00 0.00 0.00 0.00 0.00 0.00 0.00 0.00 0.00 0.00 0.00
0.00 0.00 0.00 0.00 0.00 0.00 0.00 0.00 0.00 0.00 0.00 0.00 0.02 0.02 0.00 0.02 0.02 0.04 0.02 0.00 0.00 0.00 0.00 0.00 0.00 0.00 0.00 0.00 0.00 0.00 0.00 0.00 0.00 0.00 0.00 0.00 0.00 0.00 0.00 0.00 0.00 0.00 0.00
0.00 0.00 0.00 0.00 0.00 0.00 0.00 0.00 0.00 0.00 0.00 0.00 0.00 0.00 0.00 0.00 0.02 0.04 0.02 0.01 0.03 0.01 0.00 0.00 0.00 0.00 0.00 0.00 0.00 0.00 0.00 0.00 0.00 0.00 0.00 0.00 0.00 0.00 0.00 0.00 0.00 0.00 0.00
0.00 0.00 0.00 0.00 0.00 0.00 0.00 0.00 0.00 0.00 0.00 0.00 0.00 0.00 0.00 0.00 0.02 0.04 0.03 0.04 0.05 0.03 0.01 0.01 0.00 0.01 0.02 0.01 0.00 0.00 0.00 0.00 0.00 0.00 0.00 0.00 0.00 0.00 0.00 0.00 0.00 0.00 0.00
0.00 0.00 0.00 0.00 0.00 0.00 0.00 0.00 0.00 0.00 0.00 0.00 0.00 0.00 0.00 0.00 0.02 0.05 0.04 0.04 0.02 0.03 0.03 0.02 0.02 0.02 0.01 0.01 0.00 0.00 0.00 0.00 0.00 0.00 0.00 0.00 0.00 0.00 0.00 0.00 0.00 0.00 0.00
0.00 0.00 0.00 0.00 0.00 0.00 0.00 0.00 0.00 0.00 0.00 0.00 0.00 0.01 0.01 0.00 0.01 0.04 0.04 0.02 0.03 0.02 0.02 0.03 0.05 0.04 0.03 0.03 0.02 0.01 0.00 0.00 0.00 0.00 0.00 0.00 0.00 0.00 0.00 0.00 0.00 0.00 0.00
MSLP
1014.00 1013.99 1014.32 1014.59 1015.07 1015.46 1015.74 1016.01 1016.30 1016.69 1016.95 1017.48 1017.74 1017.89 1018.12 1018.25 1018.38 1018.49 1018.54 1018.67 1018.75 1018.77 1018.74 1018.99 1019.15 1019.39 1019.56 1019.81 1020.03 1020.14 1020.10 1020.22 1020.29 1020.51 1020.51 1020.38 1020.35 1020.39 1020.49 1020.58 1020.54 1020.26 1020.46
1013.57 1013.84 1014.31 1014.68 1015.21 1015.48 1015.74 1016.07 1016.51 1016.88 1017.19 1017.60 1017.96 1018.14 1018.30 1018.40 1018.52 1018.61 1018.67 1018.70 1018.78 1018.88 1018.95 1019.31 1019.50 1019.64 1019.85 1020.08 1020.25 1020.38 1020.50 1020.57 1020.75 1020.83 1020.84 1020.81 1020.75 1020.67 1020.71 1020.75 1020.76 1020.62 1020.66
1013.72 1013.84 1014.35 1014.79 1015.27 1015.61 1015.90 1016.23 1016.60 1016.89 1017.26 1017.64 1017.98 1018.31 1018.52 1018.66 1018.72 1018.73 1018.85 1018.87 1018.72 1019.00 1019.23 1019.54 1019.63 1019.97 1020.23 1020.40 1020.49 1020.59 1020.67 1020.78 1020.87 1021.01 1021.05 1020.81 1020.78 1020.89 1020.90 1020.83 1020.84 1020.87 1020.87
1013.72 1014.00 1014.45 1014.93 1015.30 1015.64 1015.97 1016.35 1016.77 1017.10 1017.41 1017.71 1017.91 1018.26 1018.68 1018.81 1018.85 1018.94 1019.05 1019.17 1019.20 1019.41 1019.62 1019.80 1020.04 1020.28 1020.40 1020.55 1020.68 1020.75 1020.83 1020.97 1021.07 1021.14 1020.94 1020.97 1020.88 1020.98 1020.95 1020.89 1020.88 1020.87 1020.84
1013.83 1014.12 1014.62 1015.08 1015.41 1015.58 1015.97 1016.43 1016.87 1017.19 1017.58 1017.86 1018.01 1018.42 1018.75 1018.95 1019.10 1019.15 1019.25 1019.54 1019.69 1019.83 1020.00 1020.15 1020.30 1020.48 1020.57 1020.71 1020.79 1020.83 1020.97 1021.08 1021.23 1021.23 1021.21 1021.20 1021.06 1020.97 1020.97 1021.03 1021.04 1021.07 1020.97
1014.22 1014.40 1014.82 1015.15 1015.39 1015.69 1016.10 1016.53 1017.06 1017.37 1017.61 1017.87 1018.21 1018.57 1018.90 1019.14 1019.27 1019.29 1019.42 1019.69 1019.98 1020.16 1020.33 1020.43 1020.55 1020.68 1020.85 1020.94 1020.96 1021.12 1021.16 1021.22 1021.30 1021.33 1021.36 1021.37 1021.17 1021.12 1021.00 1021.06 1021.00 1021.11 1021.07
1014.59 1014.74 1015.01 1015.20 1015.49 1015.84 1016.26 1016.68 1017.08 1017.41 1017.69 1017.95 1018.26 1018.70 1019.06 1019.28 1019.47 1019.64 1019.86 1020.16 1020.33 1020.45 1020.52 1020.62 1020.80 1020.91 1021.02 1021.19 1021.22 1021.22 1021.32 1021.41 1021.35 1021.46 1021.45 1021.43 1021.29 1021.29 1021.33 1021.32 1021.37 1021.39 1021.37
1014.87 1015.12 1015.31 1015.52 1015.82 1016.10 1016.46 1016.83 1017.15 1017.38 1017.65 1017.99 1018.41 1018.78 1019.12 1019.37 1019.65 1019.92 1020.15 1020.38 1020.52 1020.59 1020.63 1020.68 1020.83 1020.98 1021.05 1021.24 1021.37 1021.44 1021.50 1021.61 1021.57 1021.62 1021.75 1021.62 1021.58 1021.54 1021.58 1021.66 1021.85 1021.88 1021.84
1014.89 1015.34 1015.55 1015.71 1016.13 1016.48 1016.70 1016.87 1017.23 1017.46 1017.68 1018.06 1018.47 1018.83 1019.18 1019.41 1019.75 1020.10 1020.26 1020.43 1020.54 1020.58 1020.67 1020.79 1020.95 1021.09 1021.17 1021.33 1021.42 1021.59 1021.73 1021.84 1021.67 1021.75 1021.80 1021.74 1021.82 1021.78 1021.88 1021.96 1022.10 1022.19 1022.23
1015.13 1015.23 1015.63 1015.92 1016.28 1016.53 1016.70 1016.93 1017.19 1017.49 1017.81 1018.13 1018.56 1018.92 1019.30 1019.67 1019.91 1020.10 1020.34 1020.52 1020.57 1020.62 1020.74 1020.90 1021.04 1021.20 1021.27 1021.49 1021.62 1021.71 1021.95 1022.02 1021.87 1022.00 1021.92 1021.85 1021.92 1021.95 1022.17 1022.26 1022.29 1022.50 1022.52
1015.34 1015.47 1015.70 1016.02 1016.29 1016.53 1016.78 1016.97 1017.22 1017.49 1017.88 1018.29 1018.63 1019.05 1019.46 1019.66 1019.94 1020.23 1020.43 1020.54 1020.64 1020.76 1020.89 1021.02 1021.24 1021.52 1021.67 1021.82 1021.95 1022.05 1022.10 1022.12 1022.09 1022.10 1021.99 1022.20 1022.09 1022.24 1022.49 1022.58 1022.63 1022.67 1022.79
1015.28 1015.62 1015.90 1016.01 1016.27 1016.56 1016.80 1017.00 1017.18 1017.35 1017.66 1018.11 1018.50 1018.86 1019.29 1019.61 1019.82 1020.09 1020.38 1020.57 1020.65 1020.74 1020.93 1021.05 1021.38 1021.73 1021.87 1021.96 1022.11 1022.27 1022.18 1022.36 1022.35 1022.36 1022.26 1022.38 1022.41 1022.53 1022.78 1022.88 1022.96 1023.09 1023.16
1015.31 1015.59 1015.82 1016.05 1016.28 1016.55 1016.70 1016.97 1017.23 1017.41 1017.69 1017.98 1018.33 1018.72 1019.13 1019.54 1019.79 1019.97 1020.24 1020.49 1020.59 1020.83 1020.98 1021.22 1021.57 1021.80 1022.01 1022.13 1022.25 1022.30 1022.41 1022.37 1022.40 1022.37 1022.53 1022.49 1022.41 1022.75 1023.17 1023.07 1023.31 1023.35 1023.53
1015.18 1015.31 1015.59 1015.75 1016.02 1016.33 1016.52 1016.74 1017.00 1017.31 1017.62 1017.86 1018.19 1018.53 1018.85 1019.23 1019.60 1019.83 1020.07 1020.36 1020.54 1020.72 1020.96 1021.27 1021.55 1021.85 1022.14 1022.36 1022.36 1022.44 1022.53 1022.58 1022.52 1022.55 1022.48 1022.71 1022.60 1022.98 1023.30 1023.29 1023.55 1023.61 1023.73
1014.91 1014.89 1015.14 1015.31 1015.56 1016.01 1016.41 1016.59 1016.74 1016.99 1017.31 1017.63 1017.96 1018.36 1018.61 1018.88 1019.13 1019.49 1019.83 1020.20 1020.45 1020.79 1020.92 1021.21 1021.48 1021.80 1022.09 1022.33 1022.50 1022.54 1022.63 1022.72 1022.78 1022.84 1022.74 1022.93 1022.91 1023.19 1023.44 1023.51 1023.67 1023.84 1023.99
1014.47 1014.47 1014.80 1014.93 1015.10 1015.45 1015.99 1016.00 1016.15 1016.58 1016.83 1017.21 1017.51 1017.92 1018.31 1018.58 1018.81 1019.14 1019.48 1019.98 1020.37 1020.72 1020.97 1021.21 1021.42 1021.59 1021.89 1022.21 1022.43 1022.72 1022.81 1022.90 1022.98 1023.05 1023.00 1023.05 1023.27 1023.39 1023.60 1023.78 1023.88 1023.98 1024.04
1013.88 1013.89 1014.02 1014.40 1014.64 1015.06 1015.28 1015.59 1015.80 1015.90 1016.30 1016.51 1016.80 1017.35 1017.82 1018.28 1018.50 1018.70 1019.00 1019.54 1019.94 1020.39 1020.81 1021.22 1021.63 1021.87 1021.99 1022.25 1022.36 1022.65 1022.88 1022.96 1023.07 1023.28 1023.38 1023.34 1023.45 1023.62 1023.77 1023.90 1023.97 1024.08 1024.09
1013.65 1013.59 1013.51 1013.70 1014.04 1014.39 1014.64 1014.96 1015.32 1015.57 1015.97 1015.88 1016.30 1016.81 1017.18 1017.65 1018.04 1018.34 1018.58 1018.96 1019.44 1020.00 1020.53 1020.97 1021.41 1021.78 1021.95 1022.18 1022.36 1022.61 1022.79 1023.01 1023.19 1023.24 1023.52 1023.64 1023.70 1023.68 1023.92 1024.13 1024.16 1024.15 1024.20
1013.11 1013.15 1013.23 1013.36 1013.45 1013.72 1014.03 1014.25 1014.71 1015.07 1015.39 1015.42 1015.73 1016.09 1016.57 1017.00 1017.45 1017.90 1018.16 1018.37 1018.87 1019.41 1020.07 1020.62 1021.17 1021.42 1021.75 1022.12 1022.44 1022.76 1022.90 1022.94 1023.16 1023.39 1023.48 1023.76 1023.88 1023.92 1024.01 1024.30 1024.40 1024.45 1024.44
1012.55 1012.60 1012.71 1012.79 1012.92 1013.05 1013.36 1013.82 1014.27 1014.71 1014.87 1014.93 1015.11 1015.19 1015.70 1016.14 1016.69 1017.21 1017.61 1017.96 1018.41 1018.91 1019.44 1020.14 1020.67 1021.34 1021.44 1021.69 1022.27 1022.89 1023.07 1023.10 1023.26 1023.20 1023.27 1023.57 1023.79 1023.96 1024.07 1024.18 1024.50 1024.69 1024.78
1012.15 1012.21 1012.26 1012.31 1012.26 1012.53 1012.82 1013.15 1013.54 1013.75 1013.89 1014.21 1014.26 1014.41 1014.71 1015.13 1015.73 1016.34 1016.64 1017.21 1017.89 1018.28 1018.68 1019.30 1020.21 1020.86 1021.37 1021.75 1022.31 1022.77 1023.14 1023.13 1023.08 1023.08 1023.18 1023.23 1023.57 1023.85 1024.04 1024.09 1024.21 1024.54 1024.63
1012.13 1012.00 1011.91 1011.96 1011.96 1011.97 1011.94 1012.05 1012.35 1012.69 1013.00 1013.20 1013.53 1013.83 1013.92 1014.23 1014.62 1015.15 1015.74 1016.32 1016.99 1017.70 1018.38 1018.86 1019.31 1020.17 1020.87 1021.39 1021.50 1022.24 1022.63 1022.90 1022.78 1022.90 1023.06 1023.08 1023.15 1023.50 1023.70 1023.91 1024.11 1024.42 1024.61
1012.14 1012.06 1011.90 1011.60 1011.57 1011.59 1011.51 1011.54 1011.80 1012.33 1012.73 1012.80 1013.14 1013.19 1013.19 1013.37 1013.62 1014.00 1014.48 1015.08 1015.83 1016.82 1017.44 1018.05 1018.58 1018.95 1019.81 1020.89 1021.01 1020.78 1021.73 1021.64 1022.17 1022.70 1022.87 1023.00 1023.08 1023.23 1023.37 1023.68 1023.91 1024.33 1024.65
1012.37 1012.04 1011.87 1011.55 1011.30 1011.17 1011.16 1011.10 1011.15 1011.23 1011.38 1011.50 1011.71 1011.97 1012.31 1012.70 1012.97 1013.32 1013.58 1014.15 1014.88 1015.60 1016.40 1016.85 1017.68 1018.21 1018.86 1019.60 1021.02 1020.68 1020.61 1020.58 1021.24 1022.06 1022.51 1022.68 1022.99 1023.10 1023.26 1023.61 1023.78 1024.13 1024.49
1012.60 1012.20 1011.81 1011.44 1011.09 1010.89 1010.89 1010.82 1010.62 1010.59 1010.52 1010.55 1010.94 1011.35 1011.65 1012.05 1012.27 1012.69 1013.02 1013.39 1013.95 1014.58 1015.21 1016.01 1016.83 1017.42 1017.71 1018.43 1018.93 1020.30 1020.86 1021.11 1020.69 1021.14 1021.54 1022.27 1022.93 1023.08 1023.36 1023.45 1023.66 1023.81 1024.27
1012.57 1012.14 1011.67 1011.33 1011.05 1010.81 1010.64 1010.69 1010.72 1010.54 1010.45 1010.40 1010.48 1010.64 1010.83 1011.25 1011.53 1011.85 1012.25 1012.76 1013.22 1013.65 1014.08 1014.66 1015.48 1016.39 1016.98 1017.66 1018.34 1018.83 1019.22 1020.03 1020.53 1020.87 1021.49 1021.85 1022.12 1022.84 1023.28 1023.66 1023.99 1024.13 1024.24
Thickness
5765 5766 5763 5761 5758 5756 5754 5752 5750 5747 5746 5741 5739 5738 5736 5735 5734 5732 5732 5731 5730 5729 5729 5727 5726 5723 5722 5721 5717 5717 5717 5716 5715 5713 5713 5714 5714 5714 5712 5711 5711 5712 5710
5768 5765 5761 5758 5754 5753 5751 5749 5746 5743 5741 5738 5735 5734 5732 5731 5729 5728 5728 5728 5726 5726 5724 5721 5719 5718 5717 5715 5713 5711 5711 5711 5709 5709 5709 5708 5709 5709 5708 5707 5706 5706 5705
5763 5762 5758 5755 5751 5750 5748 5745 5742 5740 5737 5733 5730 5728 5727 5726 5725 5725 5723 5723 5723 5721 5719 5717 5716 5714 5712 5710 5709 5708 5707 5707 5706 5705 5705 5705 5705 5704 5703 5703 5702 5701 5700
5759 5757 5754 5751 5748 5746 5743 5740 5737 5734 5731 5729 5727 5724 5721 5720 5720 5719 5718 5717 5716 5714 5713 5711 5710 5708 5706 5705 5704 5704 5703 5702 5701 5701 5702 5701 5700 5699 5700 5700 5699 5698 5698
5756 5754 5750 5747 5744 5744 5741 5736 5733 5730 5727 5725 5724 5721 5718 5716 5714 5714 5712 5710 5709 5708 5706 5705 5704 5702 5701 5700 5700 5700 5699 5698 5697 5697 5696 5696 5696 5696 5696 5695 5694 5693 5693
5749 5748 5746 5744 5742 5740 5737 5734 5729 5726 5724 5722 5720 5717 5715 5712 5711 5710 5708 5706 5704 5702 5700 5699 5698 5697 5696 5695 5695 5693 5694 5694 5694 5692 5691 5691 5691 5691 5692 5691 5691 5689 5688
5743 5743 5740 5740 5737 5736 5733 5730 5727 5724 5721 5719 5717 5714 5710 5708 5706 5704 5701 5699 5697 5696 5695 5695 5693 5692 5690 5688 5688 5688 5688 5688 5687 5686 5686 5686 5686 5687 5686 5685 5684 5683 5682
5737 5735 5734 5733 5731 5730 5727 5725 5722 5721 5719 5716 5712 5709 5707 5704 5702 5699 5697 5694 5692 5691 5691 5690 5688 5687 5686 5684 5683 5683 5683 5682 5681 5680 5679 5680 5679 5680 5679 5678 5675 5675 5674
5730 5726 5726 5726 5724 5722 5722 5721 5718 5716 5714 5711 5708 5705 5702 5700 5698 5694 5693 5691 5690 5689 5687 5686 5684 5682 5681 5680 5679 5678 5678 5677 5676 5675 5674 5674 5674 5674 5672 5671 5669 5668 5666
5724 5723 5720 5719 5717 5716 5716 5716 5714 5711 5710 5707 5703 5700 5697 5694 5693 5691 5689 5686 5686 5685 5683 5682 5680 5678 5677 5675 5675 5674 5673 5672 5671 5669 5669 5668 5668 5667 5664 5663 5663 5660 5660
5716 5716 5715 5714 5712 5711 5710 5710 5709 5707 5704 5701 5698 5695 5692 5689 5687 5685 5683 5682 5681 5680 5678 5677 5674 5672 5672 5670 5669 5668 5668 5666 5665 5665 5664 5662 5662 5660 5657 5656 5655 5653 5652
5709 5708 5709 5709 5708 5707 5706 5705 5703 5702 5699 5696 5694 5691 5688 5685 5683 5681 5679 5678 5676 5675 5673 5672 5669 5667 5666 5665 5664 5663 5662 5660 5659 5658 5657 5655 5654 5652 5650 5649 5647 5645 5643
5705 5705 5706 5705 5704 5703 5702 5699 5697 5696 5694 5692 5689 5686 5684 5680 5678 5677 5675 5672 5671 5670 5668 5665 5663 5661 5659 5658 5657 5657 5655 5655 5654 5653 5649 5649 5649 5645 5641 5641 5638 5637 5634
5702 5703 5703 5702 5700 5699 5697 5696 5694 5692 5689 5687 5684 5682 5680 5678 5675 5673 5671 5668 5666 5664 5663 5660 5658 5656 5653 5651 5650 5649 5648 5647 5647 5646 5645 5642 5642 5637 5634 5633 5630 5628 5627
5700 5701 5700 5699 5698 5695 5693 5692 5691 5689 5686 5683 5681 5679 5677 5675 5674 5671 5668 5664 5661 5658 5657 5655 5653 5650 5648 5646 5645 5644 5642 5641 5640 5638 5637 5636 5635 5631 5627 5626 5624 5621 5619
5698 5699 5697 5696 5694 5692 5692 5693 5690 5686 5684 5681 5679 5677 5675 5672 5671 5669 5665 5660 5656 5653 5651 5648 5647 5646 5644 5641 5639 5637 5635 5634 5633 5631 5631 5629 5626 5624 5621 5619 5616 5614 5613
5698 5699 5698 5694 5691 5690 5690 5688 5686 5687 5683 5680 5679 5676 5673 5669 5667 5665 5663 5658 5654 5650 5647 5643 5639 5638 5637 5636 5634 5632 5629 5628 5626 5623 5622 5621 5619 5617 5615 5612 5611 5609 5607
5692 5693 5695 5695 5692 5689 5688 5685 5683 5682 5679 5680 5677 5673 5671 5668 5665 5661 5659 5657 5651 5647 5644 5639 5635 5632 5631 5630 5628 5626 5624 5622 5620 5619 5616 5614 5613 5611 5607 5604 5603 5602 5600
5689 5690 5691 5691 5690 5687 5685 5683 5680 5678 5676 5677 5676 5672 5669 5666 5662 5658 5656 5654 5649 5646 5641 5636 5631 5629 5627 5623 5620 5618 5617 5617 5614 5612 5610 5607 5605 5603 5601 5596 5594 5593 5592
5685 5686 5688 5689 5688 5687 5684 5680 5676 5673 5673 5672 5672 5672 5668 5664 5660 5656 5653 5650 5646 5643 5640 5634 5629 5623 5623 5621 5615 5609 5607 5608 5607 5606 5605 5602 5599 5597 5594 5592 5587 5584 5583
5680 5681 5683 5684 5687 5685 5680 5676 5672 5672 5672 5670 5669 5669 5666 5663 5660 5655 5653 5648 5643 5641 5638 5634 5627 5621 5616 5613 5608 5603 5599 5599 5600 5599 5598 5597 5593 5590 5587 5585 5583 5579 5577
5673 5675 5675 5676 5678 5680 5680 5679 5676 5673 5671 5669 5665 5663 5663 5661 5660 5656 5650 5646 5641 5636 5632 5628 5626 5618 5613 5608 5609 5601 5600 5597 5595 5593 5591 5590 5589 5586 5583 5580 5576 5572 5569
5661 5664 5667 5670 5670 5671 5673 5673 5670 5665 5661 5661 5659 5660 5660 5656 5654 5652 5649 5646 5642 5634 5630 5625 5623 5621 5614 5603 5602 5608 5596 5604 5594 5586 5584 5583 5582 5580 5577 5573 5570 5564 5560
5650 5652 5655 5658 5661 5663 5663 5665 5664 5663 5660 5661 5660 5658 5653 5649 5648 5647 5646 5643 5639 5635 5630 5627 5620 5617 5612 5606 5591 5595 5596 5600 5597 5591 5580 5577 5574 5571 5568 5564 5561 5557 5552
5639 5642 5645 5649 5651 5653 5653 5655 5656 5657 5659 5658 5655 5650 5648 5645 5642 5641 5639 5637 5636 5633 5629 5624 5617 5613 5611 5606 5602 5588 5584 5581 5584 5587 5587 5573 5563 5560 5556 5554 5551 5548 5542
5630 5634 5637 5639 5641 5642 5643 5642 5642 5644 5643 5644 5645 5643 5641 5639 5637 5636 5633 5631 5629 5628 5627 5623 5617 5611 5607 5602 5596 5592 5590 5584 5578 5578 5571 5567 5564 5553 5547 5542 5536 5534 5531